Time,TemperatureF,DewpointF,PressureIn,WindDirection,WindDirectionDegrees,WindSpeedMPH,WindSpeedGustMPH,Humidity,HourlyPrecipIn,Conditions,Clouds,dailyrainin,SolarRadiationWatts/m^2,SoftwareType,DateUTC
2013-02-09 00:13:00,23.1,21.0,30.50,NNE,19,0.0,-999.0,92,-99.99,,,0.00,0,weatherlink.com 1.10,2013-02-09 06:13:00,
2013-02-09 00:28:00,22.9,21.0,30.48,NNE,18,0.0,-999.0,92,-99.99,,,0.00,0,weatherlink.com 1.10,2013-02-09 06:28:00,
2013-02-09 00:43:00,22.8,21.0,30.48,NNE,19,0.0,-999.0,92,-99.99,,,0.00,0,weatherlink.com 1.10,2013-02-09 06:43:00,
2013-02-09 00:58:00,22.9,21.0,30.48,NNE,19,0.0,-999.0,92,-99.99,,,0.00,0,weatherlink.com 1.10,2013-02-09 06:58:00,
2013-02-09 01:13:00,23.0,21.0,30.48,NNE,19,0.0,-999.0,92,-99.99,,,0.00,0,weatherlink.com 1.10,2013-02-09 07:13:00,
2013-02-09 01:28:00,23.1,21.0,30.49,NNE,19,0.0,-999.0,92,-99.99,,,0.00,0,weatherlink.com 1.10,2013-02-09 07:28:00,
2013-02-09 01:43:00,23.2,21.0,30.49,NNE,19,0.0,-999.0,92,-99.99,,,0.00,0,weatherlink.com 1.10,2013-02-09 07:43:00,
2013-02-09 01:58:00,23.3,21.0,30.50,NNE,19,0.0,-999.0,92,-99.99,,,0.00,0,weatherlink.com 1.10,2013-02-09 07:58:00,
2013-02-09 02:13:00,23.3,21.0,30.50,NNE,19,0.0,-999.0,92,-99.99,,,0.00,0,weatherlink.com 1.10,2013-02-09 08:13:00,
2013-02-09 02:28:00,23.3,21.0,30.49,NNE,18,0.0,-999.0,92,-99.99,,,0.00,0,weatherlink.com 1.10,2013-02-09 08:28:00,
2013-02-09 02:43:00,23.3,21.0,30.49,NNE,18,0.0,-999.0,92,-99.99,,,0.00,0,weatherlink.com 1.10,2013-02-09 08:43:00,
2013-02-09 02:58:00,23.4,22.0,30.48,NNE,20,0.0,-999.0,92,-99.99,,,0.00,0,weatherlink.com 1.10,2013-02-09 08:58:00,
2013-02-09 03:13:00,23.5,22.0,30.47,NNE,19,0.0,-999.0,92,-99.99,,,0.00,0,weatherlink.com 1.10,2013-02-09 09:13:00,
2013-02-09 03:28:00,23.7,22.0,30.47,NNE,19,0.0,-999.0,92,-99.99,,,0.00,0,weatherlink.com 1.10,2013-02-09 09:28:00,
2013-02-09 03:43:00,23.9,22.0,30.48,NNE,19,0.0,-999.0,92,-99.99,,,0.00,0,weatherlink.com 1.10,2013-02-09 09:43:00,
2013-02-09 03:58:00,24.0,22.0,30.48,NNE,19,0.0,-999.0,92,-99.99,,,0.00,0,weatherlink.com 1.10,2013-02-09 09:58:00,
2013-02-09 04:13:00,24.2,22.0,30.48,NNE,19,0.0,-999.0,92,-99.99,,,0.00,0,weatherlink.com 1.10,2013-02-09 10:13:00,
2013-02-09 04:28:00,24.4,22.0,30.48,NNE,19,0.0,-999.0,92,-99.99,,,0.00,0,weatherlink.com 1.10,2013-02-09 10:28:00,
2013-02-09 04:43:00,24.7,23.0,30.48,SSE,159,0.0,-999.0,91,-99.99,,,0.00,0,weatherlink.com 1.10,2013-02-09 10:43:00,
2013-02-09 04:58:00,24.8,22.0,30.48,South,182,0.0,-999.0,90,-99.99,,,0.00,0,weatherlink.com 1.10,2013-02-09 10:58:00,
2013-02-09 05:13:00,24.9,22.0,30.48,SSE,155,0.0,-999.0,90,-99.99,,,0.00,0,weatherlink.com 1.10,2013-02-09 11:13:00,
2013-02-09 05:28:00,25.0,22.0,30.48,South,170,0.0,-999.0,89,-99.99,,,0.00,0,weatherlink.com 1.10,2013-02-09 11:28:00,
2013-02-09 05:43:00,25.0,22.0,30.48,SSW,196,1.0,-999.0,89,-99.99,,,0.00,0,weatherlink.com 1.10,2013-02-09 11:43:00,
2013-02-09 05:58:00,25.1,22.0,30.48,SSW,205,0.0,-999.0,89,-99.99,,,0.00,0,weatherlink.com 1.10,2013-02-09 11:58:00,
2013-02-09 06:13:00,25.0,22.0,30.48,SW,219,0.0,-999.0,88,-99.99,,,0.00,0,weatherlink.com 1.10,2013-02-09 12:13:00,
2013-02-09 06:28:00,24.9,22.0,30.48,South,184,0.0,-999.0,88,-99.99,,,0.00,0,weatherlink.com 1.10,2013-02-09 12:28:00,
2013-02-09 06:43:00,24.9,22.0,30.47,South,175,0.0,-999.0,87,-99.99,,,0.00,0,weatherlink.com 1.10,2013-02-09 12:43:00,
2013-02-09 06:58:00,24.9,22.0,30.48,South,172,0.0,-999.0,87,-99.99,,,0.00,0,weatherlink.com 1.10,2013-02-09 12:58:00,
2013-02-09 07:14:00,24.9,22.0,30.48,SSE,161,1.0,-999.0,87,-99.99,,,0.00,0,weatherlink.com 1.10,2013-02-09 13:14:00,
2013-02-09 07:29:00,24.8,22.0,30.48,SE,144,0.0,-999.0,87,-99.99,,,0.00,7,weatherlink.com 1.10,2013-02-09 13:29:00,
2013-02-09 07:43:00,25.0,22.0,30.47,South,175,0.0,-999.0,87,-99.99,,,0.00,9,weatherlink.com 1.10,2013-02-09 13:43:00,
2013-02-09 07:58:00,25.2,22.0,30.48,South,178,0.0,-999.0,86,-99.99,,,0.00,18,weatherlink.com 1.10,2013-02-09 13:58:00,
2013-02-09 08:13:00,25.3,22.0,30.48,SSW,192,0.0,-999.0,86,-99.99,,,0.00,18,weatherlink.com 1.10,2013-02-09 14:13:00,
2013-02-09 08:28:00,25.4,22.0,30.47,SSE,167,0.0,-999.0,86,-99.99,,,0.00,30,weatherlink.com 1.10,2013-02-09 14:28:00,
2013-02-09 08:44:00,25.7,22.0,30.47,South,184,0.0,-999.0,85,-99.99,,,0.00,32,weatherlink.com 1.10,2013-02-09 14:44:00,
2013-02-09 08:58:00,25.9,22.0,30.47,SSW,203,0.0,-999.0,85,-99.99,,,0.00,37,weatherlink.com 1.10,2013-02-09 14:58:00,
2013-02-09 09:13:00,26.1,22.0,30.46,South,183,0.0,-999.0,85,-99.99,,,0.00,53,weatherlink.com 1.10,2013-02-09 15:13:00,
2013-02-09 09:28:00,26.3,22.0,30.47,SSW,196,2.0,-999.0,84,-99.99,,,0.00,54,weatherlink.com 1.10,2013-02-09 15:28:00,
2013-02-09 09:43:00,26.5,22.0,30.46,SSW,206,2.0,-999.0,84,-99.99,,,0.00,72,weatherlink.com 1.10,2013-02-09 15:43:00,
2013-02-09 09:58:00,26.9,23.0,30.46,SSW,199,0.0,-999.0,84,-99.99,,,0.00,72,weatherlink.com 1.10,2013-02-09 15:58:00,
2013-02-09 10:14:00,27.3,23.0,30.46,South,188,0.0,-999.0,84,-99.99,,,0.00,77,weatherlink.com 1.10,2013-02-09 16:14:00,
2013-02-09 10:29:00,27.7,23.0,30.46,South,191,0.0,-999.0,83,-99.99,,,0.00,88,weatherlink.com 1.10,2013-02-09 16:29:00,
2013-02-09 10:44:00,27.9,23.0,30.46,SSE,168,1.0,-999.0,83,-99.99,,,0.00,105,weatherlink.com 1.10,2013-02-09 16:44:00,
2013-02-09 10:59:00,28.2,23.0,30.46,SE,130,5.0,-999.0,82,-99.99,,,0.00,105,weatherlink.com 1.10,2013-02-09 16:59:00,
2013-02-09 11:14:00,28.4,24.0,30.44,SE,144,0.0,-999.0,82,-99.99,,,0.00,114,weatherlink.com 1.10,2013-02-09 17:14:00,
2013-02-09 11:29:00,28.8,24.0,30.43,South,174,1.0,-999.0,82,-99.99,,,0.00,123,weatherlink.com 1.10,2013-02-09 17:29:00,
2013-02-09 11:44:00,29.1,24.0,30.43,SSW,192,3.0,-999.0,82,-99.99,,,0.00,144,weatherlink.com 1.10,2013-02-09 17:44:00,
2013-02-09 11:59:00,29.4,25.0,30.41,SSW,194,2.0,-999.0,82,-99.99,,,0.00,125,weatherlink.com 1.10,2013-02-09 17:59:00,
2013-02-09 12:15:00,29.2,24.0,30.40,West,263,0.0,-999.0,81,-99.99,,,0.00,144,weatherlink.com 1.10,2013-02-09 18:15:00,
2013-02-09 12:29:00,29.6,25.0,30.39,South,186,0.0,-999.0,82,-99.99,,,0.00,146,weatherlink.com 1.10,2013-02-09 18:29:00,
2013-02-09 12:44:00,29.9,25.0,30.39,South,178,5.0,-999.0,81,-99.99,,,0.00,128,weatherlink.com 1.10,2013-02-09 18:44:00,
2013-02-09 12:59:00,30.3,25.0,30.38,SSE,165,5.0,-999.0,82,-99.99,,,0.00,128,weatherlink.com 1.10,2013-02-09 18:59:00,
2013-02-09 13:14:00,30.4,26.0,30.36,South,178,0.0,-999.0,82,-99.99,,,0.00,134,weatherlink.com 1.10,2013-02-09 19:14:00,
2013-02-09 13:29:00,30.4,26.0,30.36,South,183,5.0,-999.0,82,-99.99,,,0.00,165,weatherlink.com 1.10,2013-02-09 19:29:00,
2013-02-09 13:44:00,30.4,26.0,30.35,South,182,0.0,-999.0,82,-99.99,,,0.00,121,weatherlink.com 1.10,2013-02-09 19:44:00,
2013-02-09 14:00:00,30.4,26.0,30.35,South,187,2.0,-999.0,82,-99.99,,,0.00,148,weatherlink.com 1.10,2013-02-09 20:00:00,
2013-02-09 14:14:00,30.6,26.0,30.34,South,181,5.0,-999.0,82,-99.99,,,0.00,114,weatherlink.com 1.10,2013-02-09 20:14:00,
2013-02-09 14:29:00,31.7,27.0,30.33,South,182,3.0,-999.0,82,-99.99,,,0.00,311,weatherlink.com 1.10,2013-02-09 20:29:00,
2013-02-09 14:44:00,31.7,27.0,30.33,SSW,198,0.0,-999.0,82,-99.99,,,0.01,146,weatherlink.com 1.10,2013-02-09 20:44:00,
2013-02-09 14:59:00,31.0,26.0,30.32,South,183,2.0,-999.0,82,-99.99,,,0.01,137,weatherlink.com 1.10,2013-02-09 20:59:00,
2013-02-09 15:14:00,30.9,26.0,30.32,SSW,203,1.0,-999.0,82,-99.99,,,0.01,95,weatherlink.com 1.10,2013-02-09 21:14:00,
2013-02-09 15:29:00,31.0,26.0,30.31,SSE,167,0.0,-999.0,83,-99.99,,,0.01,123,weatherlink.com 1.10,2013-02-09 21:29:00,
2013-02-09 15:44:00,31.1,27.0,30.31,SSE,151,0.0,-999.0,84,-99.99,,,0.01,95,weatherlink.com 1.10,2013-02-09 21:44:00,
2013-02-09 16:00:00,31.1,27.0,30.30,South,184,0.0,-999.0,84,-99.99,,,0.01,51,weatherlink.com 1.10,2013-02-09 22:00:00,
2013-02-09 16:14:00,30.7,26.0,30.30,SSW,192,2.0,-999.0,84,-99.99,,,0.01,76,weatherlink.com 1.10,2013-02-09 22:14:00,
2013-02-09 16:29:00,30.6,26.0,30.30,SSW,209,1.0,-999.0,84,-99.99,,,0.01,25,weatherlink.com 1.10,2013-02-09 22:29:00,
2013-02-09 16:44:00,30.1,26.0,30.29,SSW,209,2.0,-999.0,85,-99.99,,,0.01,21,weatherlink.com 1.10,2013-02-09 22:44:00,
2013-02-09 16:59:00,29.9,26.0,30.29,SSW,208,2.0,-999.0,85,-99.99,,,0.01,14,weatherlink.com 1.10,2013-02-09 22:59:00,
2013-02-09 17:15:00,29.8,26.0,30.29,SSW,209,0.0,-999.0,86,-99.99,,,0.01,0,weatherlink.com 1.10,2013-02-09 23:15:00,
2013-02-09 17:30:00,29.6,26.0,30.28,SSW,208,0.0,-999.0,86,-99.99,,,0.01,0,weatherlink.com 1.10,2013-02-09 23:30:00,
2013-02-09 17:45:00,29.0,25.0,30.28,SSW,208,0.0,-999.0,86,-99.99,,,0.01,0,weatherlink.com 1.10,2013-02-09 23:45:00,
2013-02-09 18:00:00,28.5,25.0,30.28,SSW,207,0.0,-999.0,87,-99.99,,,0.01,0,weatherlink.com 1.10,2013-02-10 00:00:00,
2013-02-09 18:15:00,28.2,25.0,30.27,SSW,209,0.0,-999.0,87,-99.99,,,0.01,0,weatherlink.com 1.10,2013-02-10 00:15:00,
2013-02-09 18:30:00,28.1,25.0,30.26,SSW,207,0.0,-999.0,88,-99.99,,,0.01,0,weatherlink.com 1.10,2013-02-10 00:30:00,
2013-02-09 18:45:00,27.8,25.0,30.26,SSW,209,0.0,-999.0,88,-99.99,,,0.01,0,weatherlink.com 1.10,2013-02-10 00:45:00,
2013-02-09 19:00:00,27.4,24.0,30.25,SSW,209,0.0,-999.0,88,-99.99,,,0.01,0,weatherlink.com 1.10,2013-02-10 01:00:00,
2013-02-09 19:15:00,27.2,24.0,30.24,SSW,207,0.0,-999.0,89,-99.99,,,0.01,0,weatherlink.com 1.10,2013-02-10 01:15:00,
2013-02-09 19:30:00,27.2,24.0,30.24,SSW,207,0.0,-999.0,89,-99.99,,,0.01,0,weatherlink.com 1.10,2013-02-10 01:30:00,
2013-02-09 19:45:00,27.3,25.0,30.24,SSW,207,0.0,-999.0,90,-99.99,,,0.01,0,weatherlink.com 1.10,2013-02-10 01:45:00,
2013-02-09 20:00:00,27.4,25.0,30.24,SSW,208,0.0,-999.0,90,-99.99,,,0.01,0,weatherlink.com 1.10,2013-02-10 02:00:00,
2013-02-09 20:15:00,27.9,25.0,30.23,SSW,207,0.0,-999.0,90,-99.99,,,0.01,0,weatherlink.com 1.10,2013-02-10 02:15:00,
2013-02-09 20:30:00,28.7,26.0,30.23,SSW,208,0.0,-999.0,90,-99.99,,,0.01,0,weatherlink.com 1.10,2013-02-10 02:30:00,
2013-02-09 20:45:00,29.2,27.0,30.22,SSW,208,0.0,-999.0,90,-99.99,,,0.01,0,weatherlink.com 1.10,2013-02-10 02:45:00,
2013-02-09 21:00:00,29.7,27.0,30.22,SSW,208,0.0,-999.0,90,-99.99,,,0.01,0,weatherlink.com 1.10,2013-02-10 03:00:00,
2013-02-09 21:15:00,30.1,28.0,30.22,SSW,208,0.0,-999.0,90,-99.99,,,0.01,0,weatherlink.com 1.10,2013-02-10 03:15:00,
2013-02-09 21:30:00,30.3,28.0,30.22,SSW,208,0.0,-999.0,89,-99.99,,,0.01,0,weatherlink.com 1.10,2013-02-10 03:30:00,
2013-02-09 21:45:00,30.5,28.0,30.21,SSW,208,1.0,-999.0,89,-99.99,,,0.01,0,weatherlink.com 1.10,2013-02-10 03:45:00,
2013-02-09 22:00:00,30.7,28.0,30.21,SSW,208,1.0,-999.0,89,-99.99,,,0.01,0,weatherlink.com 1.10,2013-02-10 04:00:00,
2013-02-09 22:15:00,30.9,28.0,30.20,SSW,207,0.0,-999.0,88,-99.99,,,0.01,0,weatherlink.com 1.10,2013-02-10 04:15:00,
2013-02-09 22:30:00,31.1,28.0,30.20,SSW,207,0.0,-999.0,88,-99.99,,,0.01,0,weatherlink.com 1.10,2013-02-10 04:30:00,
2013-02-09 22:45:00,31.1,28.0,30.19,SSW,207,1.0,-999.0,87,-99.99,,,0.01,0,weatherlink.com 1.10,2013-02-10 04:45:00,
2013-02-09 23:00:00,31.1,28.0,30.18,SSW,207,0.0,-999.0,87,-99.99,,,0.01,0,weatherlink.com 1.10,2013-02-10 05:00:00,
2013-02-09 23:15:00,31.2,28.0,30.18,SSW,207,1.0,-999.0,86,-99.99,,,0.01,0,weatherlink.com 1.10,2013-02-10 05:15:00,
2013-02-09 23:30:00,30.8,27.0,30.17,SSW,207,0.0,-999.0,86,-99.99,,,0.01,0,weatherlink.com 1.10,2013-02-10 05:30:00,
2013-02-09 23:45:00,30.6,27.0,30.17,SSW,208,0.0,-999.0,86,-99.99,,,0.01,0,weatherlink.com 1.10,2013-02-10 05:45:00,